WetterOnline ( https://www.wetteronline.de )

Wetter aktuell Augsburg

Aktuelles Wetter: Augsburg/Mühlhausen (477m)

6-stündlich | Neueste Meldungen
Ortszeit Temperatur Wetter
Mo, 20.05. 2:00 9.1° C wolkenlos
So, 19.05. 20:00 18.3° C wolkenlos
So, 19.05. 14:00 19.8° C fast wolkenlos
So, 19.05. 8:00 12.1° C wolkenlos
So, 19.05. 2:00 11.5° C wolkig
Sa, 18.05. 20:00 18.9° C wolkig
Sa, 18.05. 14:00 18.1° C bewölkt
Sa, 18.05. 8:00 12.6° C bedeckt
Ortszeit Temperatur Wetter
Mo, 20.05. 7:30 13.4° C leicht bewölkt
Mo, 20.05. 7:20 13.4° C leicht bewölkt
Mo, 20.05. 7:10 12.0° C wolkenlos
Mo, 20.05. 7:00 10.1° C leicht bewölkt
Mo, 20.05. 6:50 10.1° C leicht bewölkt
Mo, 20.05. 6:40 9.2° C wolkig
Mo, 20.05. 6:30 8.6° C wolkig
Mo, 20.05. 6:00 7.2° C wolkig
Mo, 20.05. 5:30 7.2° C leicht bewölkt
Mo, 20.05. 5:00 7.3° C fast wolkenlos
Mo, 20.05. 4:30 7.5° C fast wolkenlos
Mo, 20.05. 4:00 7.9° C wolkenlos
Ortszeit Relative Feuchte Sichtweite
Mo, 20.05. 2:00 93% 55 km
So, 19.05. 20:00 59% 50 km
So, 19.05. 14:00 53% 65 km
So, 19.05. 8:00 87% 45 km
So, 19.05. 2:00 92% 55 km
Sa, 18.05. 20:00 54% >70 km
Sa, 18.05. 14:00 61% 65 km
Sa, 18.05. 8:00 78% >70 km
Ortszeit Relative Feuchte Sichtweite
Mo, 20.05. 7:30 81% 28 km
Mo, 20.05. 7:20 81% -
Mo, 20.05. 7:10 85% -
Mo, 20.05. 7:00 92% 30 km
Mo, 20.05. 6:50 92% -
Mo, 20.05. 6:40 91% -
Mo, 20.05. 6:30 94% 35 km
Mo, 20.05. 6:00 96% 40 km
Mo, 20.05. 5:30 97% 35 km
Mo, 20.05. 5:00 96% 40 km
Mo, 20.05. 4:30 97% 45 km
Mo, 20.05. 4:00 96% 45 km
Ortszeit Niederschlagsmenge Niederschlagsart
Mo, 20.05. 2:00 0.0 l/m2 in 6 Std. -
So, 19.05. 20:00 0.0 l/m2 in 12 Std. -
So, 19.05. 14:00 0.0 l/m2 in 6 Std. -
So, 19.05. 8:00 3 l/m2 in 12 Std. -
So, 19.05. 2:00 3 l/m2 in 6 Std. Regen
Sa, 18.05. 20:00 0.0 l/m2 in 12 Std. -
Sa, 18.05. 14:00 0.0 l/m2 in 6 Std. -
Sa, 18.05. 8:00 0.1 l/m2 in 12 Std. -
Ortszeit Niederschlagsmenge Niederschlagsart
Mo, 20.05. 7:30 0.0 l/m2 in 30 Min -
Mo, 20.05. 7:20 keine Meldung -
Mo, 20.05. 7:10 keine Meldung -
Mo, 20.05. 7:00 0.0 l/m2 in 1 Std. -
Mo, 20.05. 6:50 keine Meldung -
Mo, 20.05. 6:40 keine Meldung -
Mo, 20.05. 6:30 0.0 l/m2 in 30 Min -
Mo, 20.05. 6:00 0.0 l/m2 in 1 Std. -
Mo, 20.05. 5:30 0.0 l/m2 in 30 Min -
Mo, 20.05. 5:00 0.0 l/m2 in 1 Std. -
Mo, 20.05. 4:30 0.0 l/m2 in 30 Min -
Mo, 20.05. 4:00 0.0 l/m2 in 1 Std. -
Ortszeit Stärke Spitze Richtung
km/h Bft. km/h Grad Sektor
Mo, 20.05. 2:00 4 1 14 60° NO
So, 19.05. 20:00 11 2 32 330° NW
So, 19.05. 14:00 22 4 36 230° SW
So, 19.05. 8:00 7 2 14 160° S
So, 19.05. 2:00 9 2 57 190° S
Sa, 18.05. 20:00 7 2 25 360° N
Sa, 18.05. 14:00 17 3 41 350° N
Sa, 18.05. 8:00 20 4 28 230° SW
Ortszeit Stärke Spitze Richtung
km/h Bft. km/h Grad Sektor
Mo, 20.05. 7:30 0 0 4 - -
Mo, 20.05. 7:20 0 0 - 100° O
Mo, 20.05. 7:10 0 0 - 160° S
Mo, 20.05. 7:00 4 1 4 130° SO
Mo, 20.05. 6:50 4 1 - 130° SO
Mo, 20.05. 6:40 2 1 - 40° NO
Mo, 20.05. 6:30 4 1 4 160° S
Mo, 20.05. 6:00 4 1 7 70° O
Mo, 20.05. 5:30 4 1 7 90° O
Mo, 20.05. 5:00 4 1 7 80° O
Mo, 20.05. 4:30 2 1 6 80° O
Mo, 20.05. 4:00 4 1 7 100° O
Ortszeit Untergrenze Bedeckung Gattung
total tief tief mittel hoch
Mo, 20.05. 2:00 - 0/8 0/8 - - -
So, 19.05. 20:00 - 0/8 0/8 - - -
So, 19.05. 14:00 1350 m 1/8 1/8 - - -
So, 19.05. 8:00 - 0/8 0/8 - - -
So, 19.05. 2:00 2100 m 8/8 2/8 - - -
Sa, 18.05. 20:00 2100 m 8/8 2/8 - - -
Sa, 18.05. 14:00 1410 m 7/8 7/8 - - -
Sa, 18.05. 8:00 3000 m 8/8 8/8 - - -
Ortszeit Bedeckungsgrad in Achtel und Wolkenuntergrenze
Mo, 20.05. 7:30 4(6900m)
Mo, 20.05. 7:20 4(6900m)
Mo, 20.05. 7:10 keine Wolken
Mo, 20.05. 7:00 3(7200m)
Mo, 20.05. 6:50 3(7200m)
Mo, 20.05. 6:40 6
Mo, 20.05. 6:30 8(7200m)
Mo, 20.05. 6:00 8(7200m)
Mo, 20.05. 5:30 2(7500m) 4(8100m)
Mo, 20.05. 5:00 1(8400m)
Mo, 20.05. 4:30 2(8400m)
Mo, 20.05. 4:00 keine Wolken
Ortszeit Luftdruck NN (hPa) Tendenz (hPa in 3 Std.)
Mo, 20.05. 2:00 1013 + 0,3
So, 19.05. 20:00 1009 - 0,2
So, 19.05. 14:00 1010 - 1,4
So, 19.05. 8:00 1013 + 0,5
So, 19.05. 2:00 1013 + 0,1
Sa, 18.05. 20:00 1009 - 0,7
Sa, 18.05. 14:00 1011 - 0,2
Sa, 18.05. 8:00 1012 + 1,0
Ortszeit Luftdruck NN (hPa) Tendenz (hPa in 3 Std.)
Mo, 20.05. 7:30 1012 + 0,4
Mo, 20.05. 7:20 1012 keine Meldung
Mo, 20.05. 7:10 1012 keine Meldung
Mo, 20.05. 7:00 1012 + 0,3
Mo, 20.05. 6:50 1012 keine Meldung
Mo, 20.05. 6:40 1013 keine Meldung
Mo, 20.05. 6:30 1013 + 0,1
Mo, 20.05. 6:00 1013 - 0,1
Mo, 20.05. 5:30 1013 - 0,3
Mo, 20.05. 5:00 1013 - 0,4
Mo, 20.05. 4:30 1013 - 0,3
Mo, 20.05. 4:00 1013 - 0,3
Ortszeit Schneehöhe (cm)
Mo, 20.05. 2:00 0
So, 19.05. 20:00 0
So, 19.05. 14:00 0
So, 19.05. 8:00 0
So, 19.05. 2:00 0
Sa, 18.05. 20:00 0
Sa, 18.05. 14:00 0
Sa, 18.05. 8:00 0
Ortszeit Schneehöhe (cm)
Mo, 20.05. 7:30 0
Mo, 20.05. 7:20 0
Mo, 20.05. 7:10 -
Mo, 20.05. 7:00 0
Mo, 20.05. 6:50 0
Mo, 20.05. 6:40 -
Mo, 20.05. 6:30 0
Mo, 20.05. 6:00 0
Mo, 20.05. 5:30 0
Mo, 20.05. 5:00 0
Mo, 20.05. 4:30 0
Mo, 20.05. 4:00 0
Link zu dieser Seite / Seite empfehlen

Das Wetter in ...